Coldwater, MI

10:46 AM EDT on October 21, 2017 (GMT -0400)
Branch County Memorial

Weather History for KOEB - November, 2012

Change the Weather History Date:

Monday, November 19, 2012

  Actual Average (KJYM) Record (KJYM)
Temperature  
Mean Temperature 42 °F -  
Max Temperature 55 °F 45 °F 69 °F (1953)
Min Temperature 30 °F 27 °F 5 °F (1986)
Degree Days  
Heating Degree Days 22    
Moisture  
Dew Point 32 °F    
Average Humidity 69    
Maximum Humidity 94    
Minimum Humidity 41    
Precipitation  
Precipitation 0.00 in - - ()
Sea Level Pressure  
Sea Level Pressure 30.28 in    
Wind  
Wind Speed 4 mph (SE)    
Max Wind Speed 7 mph    
Max Gust Speed -    
Visibility 9 miles    
Events      
Averages and records for this station are not official NWS values.
T = Trace of Precipitation, MM = Missing Value Source: NWS Daily Summary

Daily Weather History Graph

Daily Weather History Graph

Search for Another Location

Airport or City:

Trip Planner

Search our weather history database for the weather conditions in past years. The results will help you decide how hot, cold, wet, or windy it might be!

Date:

Astronomy

Nov. 19, 2012 Rise Set
Actual Time 7:35 AM EST 5:15 PM EST
Civil Twilight 7:05 AM EST 5:46 PM EST
Nautical Twilight 6:31 AM EST 6:20 PM EST
Astronomical Twilight 5:57 AM EST 6:53 PM EST
Moon 12:35 PM EST (11/19) 11:44 PM EST (11/19)
Length of Visible Light 10h 40m
Length of Day
9h 40m
Waxing Crescent, 40% of the Moon is Illuminated
Nov 19
Waxing Crescent
Nov 20
First Quarter
Nov 28
Full
Dec 6
Last Quarter
Dec 13
New

Hourly Weather History & Observations

Time (EST) Temp. Windchill Dew Point Humidity Pressure Visibility Wind Dir Wind Speed Gust Speed Precip Events Conditions
12:14 AM 36.5 °F 32.7 °F 30.4 °F 78% 30.38 in 10.0 mi SE 4.6 mph - N/A   Unknown
12:35 AM 36.5 °F 32.7 °F 30.6 °F 79% 30.38 in 10.0 mi ESE 4.6 mph - N/A   Unknown
12:55 AM 36.7 °F 34.1 °F 30.2 °F 77% 30.38 in 10.0 mi ESE 3.5 mph - N/A   Unknown
1:14 AM 35.1 °F 32.2 °F 30.0 °F 82% 30.37 in 10.0 mi SE 3.5 mph - N/A   Unknown
1:35 AM 33.6 °F 29.4 °F 29.7 °F 85% 30.36 in 7.0 mi SE 4.6 mph - N/A   Unknown
1:55 AM 35.1 °F 32.2 °F 30.0 °F 82% 30.36 in 7.0 mi SE 3.5 mph - N/A   Unknown
2:14 AM 33.3 °F 28.9 °F 29.5 °F 86% 30.36 in 7.0 mi SSE 4.6 mph - N/A   Unknown
2:35 AM 33.3 °F 28.9 °F 30.0 °F 88% 30.36 in 7.0 mi SSE 4.6 mph - N/A   Unknown
2:54 AM 32.0 °F 27.5 °F 29.3 °F 90% 30.36 in 7.0 mi SSE 4.6 mph - N/A   Unknown
3:14 AM 32.0 °F 26.4 °F 29.7 °F 91% 30.36 in 7.0 mi SSE 5.8 mph - N/A   Unknown
3:35 AM 32.0 °F 26.4 °F 29.8 °F 92% 30.35 in 7.0 mi SE 5.8 mph - N/A   Unknown
3:54 AM 32.2 °F 27.7 °F 30.0 °F 92% 30.34 in 7.0 mi SSE 4.6 mph - N/A   Unknown
4:14 AM 32.0 °F 27.5 °F 30.0 °F 92% 30.33 in 7.0 mi SE 4.6 mph - N/A   Unknown
4:34 AM 31.1 °F - 28.9 °F 92% 30.33 in 5.0 mi Calm Calm - N/A   Mist
4:54 AM 30.7 °F - 28.9 °F 93% 30.33 in 5.0 mi Calm Calm - N/A   Mist
5:15 AM 30.7 °F - 28.9 °F 93% 30.33 in 5.0 mi Calm Calm - N/A   Mist
5:34 AM 32.4 °F - 30.0 °F 91% 30.34 in 7.0 mi Calm Calm - N/A   Unknown
5:54 AM 32.4 °F - 29.7 °F 90% 30.33 in 7.0 mi Calm Calm - N/A   Unknown
6:15 AM 31.1 °F - 28.4 °F 90% 30.33 in 5.0 mi Calm Calm - N/A   Mist
6:34 AM 31.3 °F - 29.3 °F 92% 30.33 in 5.0 mi Calm Calm - N/A   Mist
6:54 AM 32.2 °F - 30.0 °F 92% 30.33 in 7.0 mi Calm Calm - N/A   Unknown
7:15 AM 32.0 °F - 29.7 °F 91% 30.33 in 5.0 mi Calm Calm - N/A   Mist
7:34 AM 31.1 °F - 29.1 °F 92% 30.33 in 4.0 mi Calm Calm - N/A   Mist
7:54 AM 30.7 °F - 29.1 °F 94% 30.33 in 3.0 mi Calm Calm - N/A   Mist
8:34 AM 32.5 °F - 30.7 °F 93% 30.33 in 4.0 mi Calm Calm - N/A   Mist
8:55 AM 34.5 °F - 31.6 °F 89% 30.33 in 5.0 mi Calm Calm - N/A   Mist
9:14 AM 38.8 °F 33.8 °F 31.3 °F 74% 30.33 in 7.0 mi SSE 6.9 mph - N/A   Unknown
9:34 AM 40.8 °F 36.2 °F 31.8 °F 70% 30.33 in 7.0 mi SE 6.9 mph - N/A   Unknown
9:55 AM 42.6 °F 39.0 °F 32.5 °F 68% 30.33 in 10.0 mi SSE 5.8 mph - N/A   Unknown
10:14 AM 43.5 °F 40.9 °F 33.4 °F 68% 30.33 in 10.0 mi South 4.6 mph - N/A   Unknown
10:35 AM 44.8 °F 43.3 °F 34.0 °F 66% 30.32 in 10.0 mi SE 3.5 mph - N/A   Unknown
10:55 AM 45.1 °F 42.0 °F 33.4 °F 64% 30.33 in 10.0 mi SSE 5.8 mph - N/A   Unknown
11:14 AM 46.8 °F - 34.2 °F 62% 30.33 in 10.0 mi SE 3.5 mph - N/A   Unknown
11:35 AM 49.3 °F - 33.4 °F 54% 30.32 in 10.0 mi Calm Calm - N/A   Unknown
11:55 AM 51.1 °F - 32.5 °F 49% 30.31 in 10.0 mi Calm Calm - N/A   Unknown
12:14 PM 51.8 °F - 32.4 °F 48% 30.29 in 10.0 mi Calm Calm - N/A   Unknown
12:35 PM 51.1 °F - 34.0 °F 52% 30.28 in 10.0 mi SSE 3.5 mph - N/A   Unknown
12:54 PM - - - N/A% - - North - - N/A   Unknown
1:14 PM - - - N/A% - - North - - N/A   Unknown
1:35 PM 55.4 °F - 32.9 °F 43% 30.26 in 10.0 mi SSE 4.6 mph - N/A   Unknown
1:54 PM 55.4 °F - 33.1 °F 43% 30.26 in 10.0 mi SSE 4.6 mph - N/A   Clear
2:14 PM 55.4 °F - 32.0 °F 41% 30.25 in 10.0 mi SSE 5.8 mph - N/A   Clear
2:35 PM 54.9 °F - 32.7 °F 43% 30.24 in 10.0 mi SSE 3.5 mph - N/A   Clear
2:54 PM 55.0 °F - 33.4 °F 44% 30.24 in 10.0 mi SSE 3.5 mph - N/A   Clear
3:14 PM 55.6 °F - 33.1 °F 43% 30.23 in 10.0 mi SE 6.9 mph - N/A   Clear
3:35 PM 54.9 °F - 32.2 °F 42% 30.22 in 10.0 mi SSE 3.5 mph - N/A   Clear
3:54 PM 54.5 °F - 32.4 °F 43% 30.22 in 10.0 mi SSE 4.6 mph - N/A   Clear
4:15 PM 54.3 °F - 31.6 °F 42% 30.22 in 10.0 mi SSE 4.6 mph - N/A   Clear
4:35 PM 53.4 °F - 32.2 °F 44% 30.22 in 10.0 mi SSE 3.5 mph - N/A   Clear
4:54 PM 52.7 °F - 32.0 °F 45% 30.21 in 10.0 mi SSE 3.5 mph - N/A   Clear
5:15 PM 51.8 °F - 32.0 °F 47% 30.21 in 10.0 mi SE 3.5 mph - N/A   Clear
5:34 PM 50.5 °F - 32.0 °F 49% 30.21 in 10.0 mi SSE 3.5 mph - N/A   Clear
5:55 PM 49.6 °F - 32.0 °F 51% 30.21 in 10.0 mi Calm Calm - N/A   Clear
6:15 PM 47.5 °F - 33.3 °F 58% 30.21 in 10.0 mi SE 4.6 mph - N/A   Clear
6:34 PM 48.2 °F - 32.9 °F 55% 30.21 in 10.0 mi SE 5.8 mph - N/A   Clear
6:55 PM 48.2 °F - 33.6 °F 57% 30.20 in 10.0 mi SE 5.8 mph - N/A   Clear
7:14 PM 48.4 °F - 33.1 °F 56% 30.19 in 10.0 mi SE 6.9 mph - N/A   Clear
7:34 PM 48.2 °F - 32.9 °F 55% 30.20 in 10.0 mi SSE 5.8 mph - N/A   Clear
7:55 PM 47.1 °F - 33.1 °F 58% 30.19 in 10.0 mi SE 4.6 mph - N/A   Clear
8:14 PM 46.0 °F 43.9 °F 33.4 °F 61% 30.19 in 10.0 mi SE 4.6 mph - N/A   Clear
8:55 PM 44.4 °F 42.0 °F 33.4 °F 65% 30.19 in 10.0 mi SE 4.6 mph - N/A   Clear
9:14 PM 44.2 °F 41.8 °F 33.3 °F 65% 30.18 in 10.0 mi SE 4.6 mph - N/A   Clear
9:34 PM 42.3 °F 38.6 °F 34.0 °F 72% 30.18 in 10.0 mi SE 5.8 mph - N/A   Scattered Clouds
10:14 PM 43.7 °F 41.1 °F 34.0 °F 69% 30.17 in 10.0 mi SE 4.6 mph - N/A   Clear
10:35 PM 41.9 °F 40.0 °F 34.5 °F 75% 30.17 in 10.0 mi SE 3.5 mph - N/A   Clear
10:55 PM 43.0 °F 40.3 °F 34.5 °F 72% 30.16 in 10.0 mi SSE 4.6 mph - N/A   Clear
11:14 PM 44.6 °F 42.2 °F 34.7 °F 68% 30.16 in 10.0 mi SE 4.6 mph - N/A   Scattered Clouds
11:35 PM 43.0 °F 40.3 °F 34.7 °F 73% 30.16 in 10.0 mi SE 4.6 mph - N/A   Mostly Cloudy
11:54 PM 44.1 °F 40.8 °F 34.7 °F 70% 30.15 in 10.0 mi SE 5.8 mph - N/A   Mostly Cloudy